GW1238 Weather Reports


time (UTC)temp
C
wind
direction
speed
KPH
gust
KPH
rain 1hr
cm
rain 24hr
cm
rain mn
cm
humidity
%
barometer
mb
20260901214956 37 162 0.0 1.6 0.00 0.00 0.00 50 1020.5
20260901214454 36 160 0.0 0.0 0.00 0.00 0.00 49 1020.3
20260901213949 35 108 0.0 1.6 0.00 0.00 0.00 54 1020.4
20260901213444 34 106 1.6 1.6 0.00 0.00 0.00 57 1020.5
20260901212943 33 112 3.2 3.2 0.00 0.00 0.00 57 1020.7
20260901212439 36 161 0.0 0.0 0.00 0.00 0.00 49 1020.4
20260901211936 35 103 0.0 4.8 0.00 0.00 0.00 51 1020.6
20260901211431 34 107 1.6 3.2 0.00 0.00 0.00 52 1020.7
20260901210926 35 140 1.6 3.2 0.00 0.00 0.00 50 1020.5
20260901210423 33 125 1.6 6.4 0.00 0.00 0.00 56 1020.7
20260901205919 33 100 3.2 6.4 0.00 0.00 0.00 55 1020.5
20260901205418 33 119 3.2 3.2 0.00 0.00 0.00 59 1020.6
20260901204913 33 121 3.2 4.8 0.00 0.00 0.00 53 1020.6
20260901204410 33 137 1.6 3.2 0.00 0.00 0.00 57 1020.5
20260901203910 33 150 3.2 3.2 0.00 0.00 0.00 56 1020.9
20260901203404 33 124 3.2 3.2 0.00 0.00 0.00 57 1020.9
20260901202859 33 130 3.2 3.2 0.00 0.00 0.00 55 1020.8
20260901202354 33 126 1.6 4.8 0.00 0.00 0.00 57 1021.1
20260901201851 33 137 3.2 3.2 0.00 0.00 0.00 56 1021.2
20260901201350 33 117 3.2 3.2 0.00 0.00 0.00 57 1021.1
20260901200850 33 111 1.6 4.8 0.00 0.00 0.00 62 1021.2
20260901200345 33 104 6.4 6.4 0.00 0.00 0.00 57 1021.2
20260901195844 33 116 3.2 4.8 0.00 0.00 0.00 57 1021.1
20260901195337 33 127 1.6 3.2 0.00 0.00 0.00 61 1021.1
20260901194833 33 111 3.2 4.8 0.00 0.00 0.00 59 1021.2
20260901194332 32 117 3.2 4.8 0.00 0.00 0.00 63 1021.2
20260901193829 32 118 3.2 4.8 0.00 0.00 0.00 59 1021.4
20260901193328 32 123 3.2 4.8 0.00 0.00 0.00 62 1021.4
20260901192822 32 114 3.2 4.8 0.00 0.00 0.00 60 1021.5
20260901192318 32 127 4.8 4.8 0.00 0.00 0.00 65 1021.9
20260901191815 32 123 3.2 4.8 0.00 0.00 0.00 64 1021.7
20260901191309 32 119 3.2 4.8 0.00 0.00 0.00 67 1021.7
20260901190806 32 116 4.8 4.8 0.00 0.00 0.00 61 1021.8
20260901190305 32 115 4.8 4.8 0.00 0.00 0.00 60 1021.7
20260901185804 32 154 1.6 3.2 0.00 0.00 0.00 61 1021.9
20260901185305 32 142 4.8 4.8 0.00 0.00 0.00 62 1022.0
20260901184758 32 135 3.2 3.2 0.00 0.00 0.00 61 1022.1
20260901184254 32 135 3.2 3.2 0.00 0.00 0.00 61 1021.9
20260901183749 32 136 3.2 3.2 0.00 0.00 0.00 61 1022.1
20260901183249 32 144 3.2 4.8 0.00 0.00 0.00 61 1022.1
20260901182745 32 136 1.6 3.2 0.00 0.00 0.00 59 1022.2
20260901182244 32 96 1.6 4.8 0.00 0.00 0.00 58 1022.2
20260901181739 32 119 4.8 4.8 0.00 0.00 0.00 58 1022.3
20260901181233 32 117 4.8 6.4 0.00 0.00 0.00 60 1022.4
20260901180732 32 115 4.8 6.4 0.00 0.00 0.00 57 1022.3
20260901180232 32 100 6.4 6.4 0.00 0.00 0.00 60 1022.4
20260901175731 32 101 6.4 6.4 0.00 0.00 0.00 63 1022.3
20260901175226 31 121 3.2 4.8 0.00 0.00 0.00 68 1022.5
20260901174721 31 111 3.2 4.8 0.00 0.00 0.00 67 1022.7
20260901174217 31 116 3.2 4.8 0.00 0.00 0.00 67 1022.4
20260901173712 31 103 4.8 4.8 0.00 0.00 0.00 69 1022.9
20260901173207 31 111 4.8 4.8 0.00 0.00 0.00 67 1022.7
20260901172704 31 137 1.6 3.2 0.00 0.00 0.00 66 1022.9
20260901172202 31 136 1.6 3.2 0.00 0.00 0.00 67 1023.1
20260901171701 32 146 1.6 3.2 0.00 0.00 0.00 66 1023.1
20260901171201 33 170 1.6 1.6 0.00 0.00 0.00 63 1023.0
20260901170700 32 181 1.6 3.2 0.00 0.00 0.00 64 1023.1
20260901170154 31 173 1.6 3.2 0.00 0.00 0.00 66 1023.3
20260901165653 30 146 1.6 3.2 0.00 0.00 0.00 70 1023.4
20260901165149 30 139 3.2 3.2 0.00 0.00 0.00 70 1023.3
20260901164645 30 139 1.6 3.2 0.00 0.00 0.00 71 1023.5
20260901164140 30 131 1.6 1.6 0.00 0.00 0.00 71 1023.4
20260901163635 30 125 1.6 3.2 0.00 0.00 0.00 70 1023.7
20260901163134 30 93 3.2 3.2 0.00 0.00 0.00 72 1023.7
20260901162630 30 107 1.6 3.2 0.00 0.00 0.00 74 1023.8
20260901162129 30 115 3.2 3.2 0.00 0.00 0.00 74 1023.8
20260901161628 30 116 3.2 3.2 0.00 0.00 0.00 74 1023.7
20260901161128 30 112 1.6 3.2 0.00 0.00 0.00 73 1023.9
20260901160625 30 118 1.6 3.2 0.00 0.00 0.00 71 1023.9
20260901160125 29 118 1.6 3.2 0.00 0.00 0.00 73 1024.1
20260901155624 29 122 1.6 3.2 0.00 0.00 0.00 75 1024.1
20260901155119 29 125 1.6 3.2 0.00 0.00 0.00 75 1024.2
20260901154614 29 115 1.6 3.2 0.00 0.00 0.00 75 1024.1
20260901154109 29 120 0.0 1.6 0.00 0.00 0.00 74 1024.1
20260901153604 29 120 1.6 3.2 0.00 0.00 0.00 76 1024.2
20260901153103 29 126 0.0 1.6 0.00 0.00 0.00 75 1024.2
20260901152558 28 125 1.6 1.6 0.00 0.00 0.00 76 1024.3
20260901152056 28 125 1.6 3.2 0.00 0.00 0.00 78 1024.4
20260901151553 28 125 3.2 3.2 0.00 0.00 0.00 80 1024.3
20260901151052 28 109 1.6 3.2 0.00 0.00 0.00 79 1024.2
20260901150550 28 113 3.2 3.2 0.00 0.00 0.00 82 1024.4
20260901150049 27 105 3.2 3.2 0.00 0.00 0.00 82 1024.2
20260901145549 27 119 3.2 3.2 0.00 0.00 0.00 81 1024.3
20260901145048 27 123 3.2 4.8 0.00 0.00 0.00 80 1024.1
20260901144544 27 119 3.2 4.8 0.00 0.00 0.00 81 1024.2
20260901144038 27 110 3.2 3.2 0.00 0.00 0.00 83 1024.2
20260901143534 27 126 3.2 3.2 0.00 0.00 0.00 83 1024.2
20260901143031 27 125 3.2 3.2 0.00 0.00 0.00 83 1024.3
20260901142526 27 124 3.2 4.8 0.00 0.00 0.00 85 1024.1
20260901142021 27 116 3.2 3.2 0.00 0.00 0.00 84 1024.2
20260901141521 27 110 1.6 3.2 0.00 0.00 0.00 85 1024.3
20260901141015 27 116 1.6 3.2 0.00 0.00 0.00 86 1024.3
20260901140514 26 116 1.6 3.2 0.00 0.00 0.00 87 1024.3
20260901140008 26 124 3.2 3.2 0.00 0.00 0.00 87 1024.3
20260901135502 26 122 3.2 3.2 0.00 0.00 0.00 88 1024.3
20260901134958 26 126 3.2 3.2 0.00 0.00 0.00 88 1024.2
20260901134454 26 131 3.2 3.2 0.00 0.00 0.00 87 1024.3
20260901133953 26 140 1.6 3.2 0.00 0.00 0.00 88 1024.1
20260901133452 27 137 3.2 3.2 0.00 0.00 0.00 85 1024.1
20260901132951 28 147 1.6 1.6 0.00 0.00 0.00 80 1024.3
20260901132451 29 158 0.0 1.6 0.00 0.00 0.00 81 1024.2
20260901131950 27 161 1.6 1.6 0.00 0.00 0.00 83 1024.2
20260901131445 27 150 1.6 1.6 0.00 0.00 0.00 84 1024.3
20260901130941 27 160 1.6 3.2 0.00 0.00 0.00 84 1024.0
20260901130441 28 161 0.0 1.6 0.00 0.00 0.00 85 1024.2
20260901125938 27 175 1.6 1.6 0.00 0.00 0.00 86 1024.2
20260901125433 26 144 1.6 3.2 0.00 0.00 0.00 87 1024.1
20260901124932 27 144 1.6 1.6 0.00 0.00 0.00 85 1024.3
20260901124428 26 155 0.0 0.0 0.00 0.00 0.00 93 1024.1
20260901123922 25 94 0.0 0.0 0.00 0.00 0.00 94 1024.1
20260901123418 24 58 0.0 0.0 0.00 0.00 0.00 96 1024.1
20260901122915 24 350 1.6 1.6 0.00 0.00 0.00 96 1023.9
20260901122410 23 344 1.6 1.6 0.00 0.00 0.00 97 1024.0
20260901121909 23 344 1.6 3.2 0.00 0.00 0.00 97 1023.8
20260901121405 23 354 1.6 3.2 0.00 0.00 0.00 98 1023.8
20260901120901 23 336 1.6 3.2 0.00 0.00 0.00 98 1023.8
20260901120355 23 19 1.6 3.2 0.00 0.00 0.00 98 1023.6
20260901115850 22 345 0.0 1.6 0.00 0.00 0.00 99 1023.6
20260901115350 22 350 1.6 3.2 0.00 0.00 0.00 99 1023.7
20260901114849 22 340 1.6 3.2 0.00 0.00 0.00 99 1023.5
20260901114348 22 358 1.6 3.2 0.00 0.00 0.00 99 1023.5
20260901113846 22 350 1.6 3.2 0.00 0.00 0.00 99 1023.3
20260901113346 22 342 1.6 3.2 0.00 0.00 0.00 99 1023.2
20260901112842 21 340 3.2 3.2 0.00 0.00 0.00 99 1023.0
20260901112342 21 344 3.2 3.2 0.00 0.00 0.00 99 1023.2
20260901111836 21 334 3.2 3.2 0.00 0.00 0.00 99 1022.9
20260901111335 21 331 3.2 3.2 0.00 0.00 0.00 99 1022.9
20260901110834 22 333 3.2 4.8 0.00 0.00 0.00 99 1022.7
20260901110330 21 336 3.2 3.2 0.00 0.00 0.00 99 1022.9
20260901105826 22 331 3.2 3.2 0.00 0.00 0.00 99 1022.6
20260901105320 22 335 3.2 3.2 0.00 0.00 0.00 99 1022.5
20260901104816 22 344 3.2 3.2 0.00 0.00 0.00 99 1022.5
20260901104312 22 349 1.6 3.2 0.00 0.00 0.00 99 1022.6
20260901103807 22 4 3.2 3.2 0.00 0.00 0.00 99 1022.6
20260901103307 22 335 3.2 3.2 0.00 0.00 0.00 99 1022.5
20260901102802 22 341 3.2 3.2 0.00 0.00 0.00 99 1022.6
20260901102301 22 342 3.2 3.2 0.00 0.00 0.00 99 1022.5
20260901101757 22 321 1.6 3.2 0.00 0.00 0.00 99 1022.5
20260901101252 22 339 1.6 3.2 0.00 0.00 0.00 99 1022.4
20260901100751 22 338 3.2 3.2 0.00 0.00 0.00 99 1022.6
20260901100246 22 337 3.2 3.2 0.00 0.00 0.00 99 1022.5
20260901095744 22 334 1.6 3.2 0.00 0.00 0.00 99 1022.6
20260901095242 22 335 1.6 3.2 0.00 0.00 0.00 99 1022.5
20260901094736 22 344 3.2 3.2 0.00 0.00 0.00 99 1022.3
20260901094231 22 335 3.2 3.2 0.00 0.00 0.00 99 1022.5
20260901093726 22 338 3.2 3.2 0.00 0.00 0.00 99 1022.3
20260901093225 22 327 1.6 3.2 0.00 0.00 0.00 99 1022.4
20260901092721 22 9 1.6 1.6 0.00 0.00 0.00 99 1022.3
20260901092217 22 339 3.2 3.2 0.00 0.00 0.00 99 1022.2
20260901091713 22 341 1.6 3.2 0.00 0.00 0.00 99 1022.3
20260901091208 22 338 3.2 4.8 0.00 0.00 0.00 99 1022.2
20260901090702 22 335 3.2 4.8 0.00 0.00 0.00 98 1022.4
20260901090157 22 346 3.2 3.2 0.00 0.00 0.00 98 1022.1
20260901085654 22 341 3.2 3.2 0.00 0.00 0.00 98 1022.2
20260901085149 22 2 1.6 3.2 0.00 0.00 0.00 98 1021.9
20260901084645 22 341 3.2 3.2 0.00 0.00 0.00 98 1022.1
20260901084141 22 342 3.2 3.2 0.00 0.00 0.00 98 1021.9
20260901083641 22 340 3.2 3.2 0.00 0.00 0.00 98 1022.1
20260901083140 22 337 3.2 3.2 0.00 0.00 0.00 98 1022.0
20260901082640 22 337 3.2 3.2 0.00 0.00 0.00 97 1022.0
20260901082136 22 328 3.2 3.2 0.00 0.00 0.00 97 1022.1
20260901081631 22 312 3.2 3.2 0.00 0.00 0.00 97 1022.0
20260901081125 22 321 3.2 3.2 0.00 0.00 0.00 97 1022.0
20260901080619 22 348 3.2 3.2 0.00 0.00 0.00 97 1022.2
20260901080118 22 342 3.2 3.2 0.00 0.00 0.00 97 1021.9
20260901075614 23 335 3.2 3.2 0.00 0.00 0.00 96 1021.9
20260901075114 22 341 3.2 3.2 0.00 0.00 0.00 96 1021.9
20260901074613 22 344 3.2 3.2 0.00 0.00 0.00 96 1021.9
20260901074108 23 339 3.2 3.2 0.00 0.00 0.00 96 1021.8
20260901073605 23 332 3.2 3.2 0.00 0.00 0.00 96 1021.8
20260901073105 23 329 3.2 3.2 0.00 0.00 0.00 97 1021.9
20260901072600 23 313 1.6 3.2 0.00 0.00 0.00 97 1021.9
20260901072055 23 331 3.2 4.8 0.00 0.00 0.00 96 1022.0
20260901071555 23 341 3.2 3.2 0.00 0.00 0.00 97 1021.9
20260901071054 23 335 3.2 3.2 0.00 0.00 0.00 97 1021.9
20260901070549 23 332 3.2 4.8 0.00 0.00 0.00 97 1022.0
20260901070044 23 356 1.6 3.2 0.00 0.00 0.00 97 1022.1
20260901065538 23 331 1.6 3.2 0.00 0.00 0.00 97 1022.0
20260901065033 23 339 3.2 4.8 0.00 0.00 0.00 96 1022.0
20260901064530 23 328 1.6 3.2 0.00 0.00 0.00 97 1022.1
20260901064026 23 355 1.6 3.2 0.00 0.00 0.00 96 1022.1
20260901063523 23 339 3.2 3.2 0.00 0.00 0.00 96 1022.2
20260901063019 23 338 3.2 3.2 0.00 0.00 0.00 96 1022.3
20260901062514 23 334 3.2 3.2 0.00 0.00 0.00 96 1022.1
20260901062011 23 335 3.2 3.2 0.00 0.00 0.00 95 1022.5
20260901061507 23 335 3.2 4.8 0.00 0.00 0.00 95 1022.4
20260901061007 23 341 3.2 3.2 0.00 0.00 0.00 95 1022.3
20260901060501 23 331 3.2 3.2 0.00 0.00 0.00 95 1022.2
20260901060001 23 332 3.2 3.2 0.00 0.00 0.00 95 1022.3
20260901055457 23 345 1.6 3.2 0.00 0.00 0.00 95 1022.5
20260901054954 23 336 3.2 3.2 0.00 0.00 0.00 94 1022.2
20260901054451 23 338 3.2 3.2 0.00 0.00 0.00 94 1022.3
20260901053947 23 336 3.2 3.2 0.00 0.00 0.00 94 1022.3
20260901053442 23 340 3.2 3.2 0.00 0.00 0.00 94 1022.2
20260901052937 23 330 3.2 3.2 0.00 0.00 0.00 94 1022.2
20260901052433 23 355 3.2 3.2 0.00 0.00 0.00 94 1022.5
20260901051931 23 341 3.2 3.2 0.00 0.00 0.00 93 1022.4
20260901051427 23 336 3.2 3.2 0.00 0.00 0.00 93 1022.5
20260901050927 23 340 3.2 4.8 0.00 0.00 0.00 93 1022.5
20260901050423 23 346 3.2 3.2 0.00 0.00 0.00 93 1022.2
20260901045922 23 339 3.2 4.8 0.00 0.00 0.00 92 1022.3
20260901045418 23 347 3.2 3.2 0.00 0.00 0.00 92 1022.3
20260901044912 24 329 3.2 3.2 0.00 0.00 0.00 92 1022.5
20260901044409 24 335 3.2 3.2 0.00 0.00 0.00 92 1022.3
20260901043904 24 336 3.2 3.2 0.00 0.00 0.00 92 1022.3
20260901043355 24 337 3.2 3.2 0.00 0.00 0.00 92 1022.3
20260901042854 24 336 3.2 3.2 0.00 0.00 0.00 91 1022.1
20260901042349 24 337 3.2 3.2 0.00 0.00 0.00 91 1022.1
20260901041844 24 334 1.6 3.2 0.00 0.00 0.00 91 1022.2
20260901041340 24 334 3.2 3.2 0.00 0.00 0.00 90 1022.1
20260901040839 24 335 3.2 3.2 0.00 0.00 0.00 90 1022.3
20260901040339 24 338 3.2 3.2 0.00 0.00 0.00 90 1022.2
20260901035838 24 342 3.2 3.2 0.00 0.00 0.00 89 1022.1
20260901035337 24 339 3.2 3.2 0.00 0.00 0.00 89 1022.2
20260901034836 24 336 3.2 3.2 0.00 0.00 0.00 89 1022.2
20260901034331 24 337 3.2 3.2 0.00 0.00 0.00 88 1022.1
20260901033825 24 335 3.2 3.2 0.00 0.00 0.00 88 1022.1
20260901033324 24 334 3.2 3.2 0.00 0.00 0.00 88 1022.1
20260901032823 24 333 3.2 3.2 0.00 0.00 0.00 87 1022.1
20260901032322 25 338 3.2 3.2 0.00 0.00 0.00 87 1022.1
20260901031817 25 333 3.2 3.2 0.00 0.00 0.00 86 1022.1
20260901031313 25 332 3.2 3.2 0.00 0.00 0.00 85 1022.3
20260901030813 25 334 3.2 6.4 0.00 0.00 0.00 85 1022.1
20260901030308 25 341 3.2 4.8 0.00 0.00 0.00 86 1022.4
20260901025807 25 334 3.2 3.2 0.00 0.00 0.00 84 1022.2
20260901025305 25 340 3.2 4.8 0.00 0.00 0.00 84 1022.3
20260901024757 25 333 3.2 3.2 0.00 0.00 0.00 84 1022.3
20260901024256 25 343 1.6 3.2 0.00 0.00 0.00 84 1022.3
20260901023754 25 335 3.2 3.2 0.00 0.00 0.00 83 1022.2
20260901023250 25 341 1.6 4.8 0.00 0.00 0.00 84 1022.2
20260901022745 25 338 1.6 3.2 0.00 0.00 0.00 82 1022.1
20260901022241 25 335 3.2 3.2 0.00 0.00 0.00 82 1022.3
20260901021736 25 336 3.2 3.2 0.00 0.00 0.00 81 1022.2
20260901021231 25 2 3.2 3.2 0.00 0.00 0.00 81 1022.0
20260901020727 25 333 3.2 3.2 0.00 0.00 0.00 80 1021.9
20260901020222 25 322 1.6 3.2 0.00 0.00 0.00 81 1022.1
20260901015717 25 334 3.2 4.8 0.00 0.00 0.00 80 1021.8
20260901015213 25 337 3.2 3.2 0.00 0.00 0.00 80 1021.8
20260901014712 26 359 1.6 3.2 0.00 0.00 0.00 79 1021.8
20260901014208 26 348 3.2 3.2 0.00 0.00 0.00 79 1021.7
20260901013703 26 327 3.2 4.8 0.00 0.00 0.00 79 1021.6
20260901013159 26 353 3.2 3.2 0.00 0.00 0.00 80 1021.6
20260901012654 26 335 3.2 6.4 0.00 0.00 0.00 78 1021.6
20260901012149 26 335 3.2 4.8 0.00 0.00 0.00 77 1021.5
20260901011645 26 335 3.2 4.8 0.00 0.00 0.00 77 1021.4
20260901011144 26 342 3.2 3.2 0.00 0.00 0.00 77 1021.6
20260901010639 26 340 3.2 3.2 0.00 0.00 0.00 77 1021.6
20260901010138 26 343 3.2 3.2 0.00 0.00 0.00 77 1021.3
20260901005638 26 348 1.6 3.2 0.00 0.00 0.00 76 1021.5
20260901005133 26 333 3.2 3.2 0.00 0.00 0.00 77 1021.2
20260901004632 26 337 3.2 3.2 0.00 0.00 0.00 78 1021.1
20260901004128 27 344 3.2 3.2 0.00 0.00 0.00 77 1021.2
20260901003622 26 332 3.2 3.2 0.00 0.00 0.00 77 1021.0
20260901003121 27 329 3.2 4.8 0.00 0.00 0.00 76 1021.0
20260901002615 27 335 3.2 4.8 0.00 0.00 0.00 77 1020.8
20260901002110 27 331 3.2 4.8 0.00 0.00 0.00 76 1020.9
20260901001605 27 335 3.2 4.8 0.00 0.00 0.00 76 1020.8
20260901001100 27 341 3.2 3.2 0.00 0.00 0.00 75 1021.0
20260901000555 28 335 3.2 3.2 0.00 0.00 0.00 75 1020.8
20260901000052 28 333 3.2 4.8 0.00 0.00 0.00 74 1020.8
20260831235545 28 335 3.2 3.2 0.00 0.00 0.00 74 1021.1
20260831235041 28 350 3.2 3.2 0.00 0.00 0.00 74 1021.0
20260831234540 28 338 3.2 3.2 0.00 0.00 0.00 72 1020.9
20260831234036 28 341 1.6 4.8 0.00 0.00 0.00 72 1020.9
20260831233531 29 337 3.2 3.2 0.00 0.00 0.00 72 1020.8
20260831233027 29 340 3.2 3.2 0.00 0.00 0.00 69 1020.9
20260831232521 29 339 3.2 3.2 0.00 0.00 0.00 67 1021.1
20260831232017 30 334 3.2 3.2 0.00 0.00 0.00 64 1021.0
20260831231514 30 333 1.6 3.2 0.00 0.00 0.00 66 1021.0
20260831231009 30 324 1.6 3.2 0.00 0.00 0.00 62 1021.1
20260831230504 31 345 1.6 1.6 0.00 0.00 0.00 61 1021.1
20260831225958 32 125 0.0 0.0 0.00 0.00 0.00 54 1021.0
20260831225455 33 351 1.6 1.6 0.00 0.00 0.00 55 1021.2
20260831224949 34 79 0.0 1.6 0.00 0.00 0.00 52 1021.1
20260831224448 35 157 0.0 0.0 0.00 0.00 0.00 51 1021.3
20260831223943 34 123 0.0 0.0 0.00 0.00 0.00 52 1021.5
20260831223439 33 105 0.0 1.6 0.00 0.00 0.00 52 1021.2
20260831222935 33 104 0.0 4.8 0.00 0.00 0.00 57 1021.4
20260831222431 32 107 3.2 3.2 0.00 0.00 0.00 53 1021.1
20260831221926 32 90 3.2 4.8 0.00 0.00 0.00 53 1021.2
20260831221422 32 102 3.2 3.2 0.00 0.00 0.00 57 1021.2
20260831220917 32 103 3.2 6.4 0.00 0.00 0.00 53 1021.2
20260831220412 32 100 3.2 6.4 0.00 0.00 0.00 57 1021.2
20260831215907 32 107 3.2 6.4 0.00 0.00 0.00 53 1021.3
20260831215403 32 96 4.8 4.8 0.00 0.00 0.00 51 1021.2